"Pseudo-MPEC" for A10SgCa

Created 2023 Jan 26 0:22:03 UT using Find_Orb

Click here for an explanation of pseudo-MPECs

 
 Astrometry: 
     A10SgCa* C2023 01 24F^?'14UWAstrometryD3/CrJ$eKo;p=sX5b0)*6R*tK1,_@=]T'LT05
     A10SgCa  C2023 01 24*_kVU-L/JyA_a+CFAOredacted;*;!p!:6xDyYJ)p_M#e\'eWAb)T05
     A10SgCa  C2023 01 24m1En'cqsapr@@!86afmOclickEZJLvhR[=%*D%mpx.fpN`r@w3,DT05
     A10SgCa  C2023 01 24mcs9CCe?eqy!5$+3^R]\:I-B0Ybalo_9hereX3RUVqNviNwX,\EjT05
     A10SgCa  C2023 01 24h)'(R4Jm2W9[=,mP_H`VQ\yY3Weo#0for7`7sexplanation8%C/T05

Station data:
(T05) ATLAS-HKO, Haleakala  (N20.707571 W156.257010)  US/Hawaii.  Observers
   L. Denneau, A. Heinze, H. Weiland, J. Tonry, H. Flewelling, A.
   Fitzsimmons, D. Young, B. Stalder. Measurers L. Denneau, A. Heinze, J.
   Tonry. 0.5-m f/2.0 Schmidt + CCD.

Orbital elements:  A10SgCa
   Perigee 2023 Jan 24.07106 +/- 0.00608 TT =  1:42:19 (JD 2459968.57106)
Epoch 2023 Jan 24.0 TT = JDT 2459968.5                           AutoNEOCP
M 332.61046567 +/- 2.7              (J2000 equator)
n 385.46042601 +/- 5.76             Peri.    5.30354 +/- 0.27
a 40359.9210 +/- 401                Node   320.82061 +/- 0.025
e   0.6743367 +/- 0.00549           Incl.   32.08380 +/- 0.06
P1344.86m/0.934d           H 33.18  G  0.15   U 13.9
q 13143.7434 +/- 351    Q 67576.0987 +/- 452
From 5 observations 2023 Jan. 24 (98.5 min); mean residual 1".61
Residuals in arcseconds: 
230124 T05  1.8-  1.6+    230124 T05  1.4-  1.4+    230124 T05  .73-  .79+    
230124 T05  2.2+  2.0-    230124 T05  1.7+  1.8-    

Ephemerides (geocentric):
Date (UTC) HH   RA             Dec           delta  r     elong  mag " sig PA
---- --------  ------------   ------------  ------ ------ -----  --- --------
2023 01 26 00  04 36 06.835   +30 43 59.82   24982 .98464 126.0 16.3 405' 100
2023 01 26 01  06 13 12.940   +24 44 56.33   34469 .98474 147.5 16.4 236' 111
2023 01 26 02  07 05 10.595   +19 29 14.31   42430 .98482 159.6 16.5 168' 116
2023 01 26 03  07 39 37.326   +15 14 33.78   49010 .98488 167.0 16.5 7990 119
2023 01 26 04  08 05 31.029   +11 42 15.49   54400 .98492 170.4 16.6 6753 120
2023 01 26 05  08 26 36.927   +08 38 24.16   58747 .98495 169.7 16.8 5964 121
2023 01 26 06  08 44 48.147   +05 53 52.41   62156 .98497 166.7 17.1 5441 122
2023 01 26 07  09 01 09.764   +03 22 30.89   64699 .98499 163.0 17.3 5093 122
2023 01 26 08  09 16 23.742   +00 59 55.33   66427 .98499 159.2 17.5 4875 122
2023 01 26 09  09 31 00.291   -01 17 17.06   67371 .98499 155.3 17.6 4762 122
2023 01 26 10  09 45 23.864   -03 31 54.89   67547 .98498 151.4 17.7 4745 122
2023 01 26 11  09 59 56.947   -05 46 31.26   66960 .98497 147.4 17.8 4829 121
2023 01 26 12  10 15 03.164   -08 03 38.89   65598 .98495 143.3 17.9 5030 121
2023 01 26 13  10 31 10.714   -10 26 04.88   63437 .98492 138.8 18.0 5381 120
2023 01 26 14  10 48 57.407   -12 57 08.06   60437 .98489 134.0 18.0 5946 119
2023 01 26 15  11 09 19.603   -15 41 01.97   56535 .98484 128.5 18.0 6846 118
2023 01 26 16  11 33 50.578   -18 43 24.97   51644 .98480 122.1 18.0 8327 116
2023 01 26 17  12 05 23.840   -22 11 43.57   45638 .98474 114.1 17.9 182' 113
2023 01 26 18  12 50 13.296   -26 13 19.03   38344 .98468 103.3 17.9 270' 109
2023 01 26 19  14 04 39.600   -30 32 53.23   29566 .98462  86.7 18.0 491' 100
2023 01 26 20  16 40 36.156   -30 33 24.32   19477 .98455  53.9 19??  21d  80
2023 01 26 21  22 04 05.889   +06 25 06.64   13183 .98456  33.4 20??  37d  59
2023 01 26 22  03 23 15.105   +32 02 59.79   20686 .98469 109.7 16.4 884'  90
2023 01 26 23  05 41 18.064   +27 14 40.47   30688 .98480 139.3 16.4 449' 108
2023 01 27 00  06 46 33.296   +21 30 38.48   39284 .98489 154.3 16.5 295' 114
2023 01 27 01  07 26 40.438   +16 52 34.21   46415 .98495 163.5 16.5 223' 118
2023 01 27 02  07 55 30.254   +13 04 30.40   52281 .98500 168.9 16.6 182' 120
2023 01 27 03  08 18 18.345   +09 50 03.07   57048 .98504 170.2 16.7 9435 121
2023 01 27 04  08 37 32.727   +06 58 18.19   60838 .98507 168.3 17.0 8465 121
2023 01 27 05  08 54 34.169   +04 22 02.64   63736 .98508 165.1 17.2 7825 122
2023 01 27 06  09 10 12.397   +01 56 14.63   65799 .98509 161.4 17.4 7418 122
2023 01 27 07  09 25 01.596   -00 22 50.43   67067 .98510 157.6 17.5 7189 122
2023 01 27 08  09 39 28.081   -02 38 12.86   67563 .98509 153.8 17.7 7117 122
2023 01 27 09  09 53 54.776   -04 52 30.28   67294 .98508 149.8 17.8 7197 121
2023 01 27 10  10 08 44.465   -07 08 13.78   66258 .98506 145.8 17.9 7445 121
2023 01 27 11  10 24 22.971   -09 28 02.47   64434 .98504 141.5 17.9 7899 120
2023 01 27 12  10 41 23.333   -11 54 59.32   61790 .98500 136.9 17.9 8636 120
2023 01 27 13  11 00 32.711   -14 32 51.39   58274 .98497 131.7 18.0 9797 119
2023 01 27 14  11 23 05.780   -17 26 36.95   53808 .98492 125.7 18.0 194' 117
2023 01 27 15  11 51 14.500   -20 42 55.71   48285 .98487 118.5 17.9 247' 115
2023 01 27 16  12 29 24.961   -24 29 47.77   41553 .98481 109.1 17.9 348' 111
2023 01 27 17  13 28 15.742   -28 47 55.56   33414 .98475  95.6 17.9 577' 105
2023 01 27 18  15 19 31.076   -32 02 37.91   23764 .98468  71.9 18.3  22d  90
2023 01 27 19  19 30 46.783   -16 20 48.49   14355 .98464  16.3 25??  55d  62
2023 01 27 20  01 34 14.185   +29 08 05.31   16585 .98473  85.6 16.8  29d  76
2023 01 27 21  04 58 05.870   +29 46 37.29   26648 .98486 128.8 16.3 759' 102
2023 01 27 22  06 23 53.002   +23 44 18.68   35887 .98495 148.1 16.5 459' 112
2023 01 27 23  07 11 51.004   +18 39 21.90   43604 .98503 159.3 16.5 330' 117